Regional Weather Roundup
Issued by NWS

Home | Current Version | Previous Version | Text Only | Print | Product List | Glossary Off
Versions: 1 2 3 4 5 6 7 8 9 10 11 12 13 14 15 16 17 18 19 20 21 22 23 24 25 26 27 28 29 30 31 32 33 34 35 36 37 38 39 40 41 42 43 44 45 46 47 48 49 50

000
ASUS43 KDTX 222010
RWRMI
MICHIGAN HOURLY REGIONAL WEATHER ROUNDUP
NATIONAL WEATHER SERVICE DETROIT/PONTIAC MI
300 PM EST WED FEB 22 2017

NOTE: "FAIR" INDICATES FEW OR NO CLOUDS BELOW 12,000 FEET WITH NO
SIGNIFICANT WEATHER AND/OR OBSTRUCTION TO VISIBILITY.

MIZ047>049-052>055-059>063-066>070-074>076-081>083-222100-
SOUTHEAST LOWER MICHIGAN

CITY           SKY/WX    TMP DP  RH WIND       PRES   REMARKS
ADRIAN         CLOUDY    62  54  74 SW12      29.77F
ALMA           PTSUNNY   63  54  73 SW13G21   29.71F
ANN ARBOR      CLOUDY    62  53  72 S12       29.76F
BAD AXE        CLOUDY    61  53  73 SW6       29.71F
CARO           PTSUNNY   64  52  65 SW14      29.70F
DETROIT CITY   CLOUDY    62  54  74 SW6       29.77F
DETROIT        PTSUNNY   64  53  67 SW13      29.77F
FLINT          CLOUDY    62  53  72 SW12G18   29.74F
GROSSE ILE     CLOUDY    54  49  85 S7        29.76F HAZE
HILLSDALE      CLOUDY    59  52  77 S8        29.76F
HOWELL         CLOUDY    60  51  72 SW12      29.75S

CITY           SKY/WX    TMP DP  RH WIND       PRES   REMARKS
JACKSON        CLOUDY    60  52  74 S10       29.75F
LAMBERTVILLE   CLOUDY    64  54  70 S10       29.77F
LANSING        CLOUDY    60  51  72 S10       29.75S
LAPEER         CLOUDY    63  52  67 S9G18     29.74F
MASON          CLOUDY    59  54  82 SW3       29.75S
MONROE         CLOUDY    63  55  74 SW10G21   29.76F
MT. CLEMENS    CLOUDY    62  55  76 S9        29.74F HAZE
PONTIAC        CLOUDY    59  52  77 S9        29.74F
PORT HOPE        N/A     41  40  96 E5        29.68F
PORT HURON     CLOUDY    63  54  72 S12       29.75F
TRI CITIES     PTSUNNY   63  54  72 SW18      29.70F
MIDLAND        CLOUDY    59  52  76 SW13G20   29.69F
TROY           CLOUDY    61  52  72 SW8       29.77F
SAGINAW HB     MOSUNNY   64  52  63 S16G22    29.70F
$$
MIZ043>046-050>051-056>058-064>065-071>073-077>080-222100-
SOUTHWEST LOWER MICHIGAN

CITY           SKY/WX    TMP DP  RH WIND       PRES   REMARKS
BATTLE CREEK   CLOUDY    59  54  83 SW12      29.75F HAZE
BENTON HARBOR  MOSUNNY   63  53  70 S13       29.72F
BIG RAPIDS     CLOUDY    55  53  95 SW7       29.68F FOG
COLDWATER      CLOUDY    61  54  75 SW12      29.76S
FREMONT        CLOUDY    53  53 100 SW14      29.69F
HOLLAND        SUNNY     63  54  72 S14G22    29.71F
GRAND RAPIDS   PTSUNNY   65  52  62 S15G24    29.70F
IONIA          PTSUNNY   62  53  71 S12       29.71F
KALAMAZOO      CLOUDY    61  52  72 S12       29.75F
LUDINGTON      CLOUDY    54  51  89 S14G24    29.63F
MARSHALL       CLOUDY    60  54  81 S8        29.75F
MOUNT PLEASANT MOSUNNY   61  54  77 SW12G17   29.69F
MUSKEGON       FOG       52  51  97 S15       29.69F VSB 1/4
SOUTH HAVEN    MOSUNNY   64  54  71 SW8       29.71F
$$
MIZ016>042-222100-
NORTHERN LOWER MICHIGAN

CITY           SKY/WX    TMP DP  RH WIND       PRES   REMARKS
ALPENA         MOSUNNY   58  50  75 S13       29.62F
BEAVER ISLAND  FOG       45  45  99 SW12G18   29.58F VSB 1/2
BELLAIRE       CLOUDY    60  48  63 S7        29.60F
CADILLAC       PTSUNNY   58  50  76 S13G24    29.64F
CHARLEVOIX     CLOUDY    60  47  63 S8        29.61F
FRANKFORT      MOSUNNY   59  51  75 SW6       29.58F
GAYLORD        CLOUDY    57  44  62 S12       29.61F
GRAYLING       PTSUNNY   59  50  71 S10G21    29.64S
HARBOR SPRINGS MOSUNNY   49  44  81 CALM      29.59F
HOUGHTON LAKE  CLOUDY    55  50  83 S12       29.66F
MANISTEE       MOSUNNY   61  51  70 S12G21    29.60F
OSCODA         CLOUDY    53  50  89 SW12G21   29.67F FOG
PELLSTON       MOSUNNY   58  45  62 SW5       29.59F
ROGERS CITY    CLOUDY    57  48  71 CALM      29.62F
TRAVERSE CITY  PTSUNNY   62  47  57 S9G23     29.58F
$$
MIZ007>008-015-222100-
EASTERN UPPER MICHIGAN

CITY           SKY/WX    TMP DP  RH WIND       PRES   REMARKS
KINROSS        CLOUDY    48  46  93 S6        29.59F FOG
MACKINAC ISLAN CLOUDY    45  45 100 CALM      29.59F
NEWBERRY       CLOUDY    41  39  93 S8        29.59R
S. S. MARIE    CLOUDY    46  38  73 E8        29.58F
MUNISING         N/A     44  36  73 N7        29.59R
$$
MIZ004>006-011>014-085-222100-
CENTRAL UPPER MICHIGAN

CITY           SKY/WX    TMP DP  RH WIND       PRES   REMARKS
MANISTIQUE     CLOUDY    37  37  97 CALM      29.59S FOG
ESCANABA       PTSUNNY   46  40  79 SE8       29.57F
MENOMINEE      MOSUNNY   52  43  71 S7        29.55F
SAWYER-GWINN   CLOUDY    45  37  76 NE10      29.58S
$$
MIZ001>003-009>011-084-222100-
WESTERN UPPER MICHIGAN

CITY           SKY/WX    TMP DP  RH WIND       PRES   REMARKS
IRON MOUNTAIN  PTSUNNY   53  38  56 NE7       29.54R
HOUGHTON       CLOUDY    37  32  82 NW9       29.60R WCI  30
COPPER HARBOR    N/A     36  34  92 N6        29.61R WCI  31
IRONWOOD       CLOUDY    43  36  76 N3        29.60R
$$

ABBREVIATIONS USED IN REMARKS
   TC - TEMPERATURE IN CELSIUS
  WCI - WIND CHILL INDEX
   HX - HEAT INDEX
  VSB - VISIBILITY





USA.gov is the U.S. government's official web portal to all federal, state and local government web resources and services.